Zurück zum Katalog

GLOBALSTAR M072

AktivKommunikationLEO
NORAD 31574·PAYLOAD·🇺🇸 United States

Gestartet May 29, 2007 von Baikonur Cosmodrome

Loading…

Nächste Überflüge (nächste 24 Stunden)

TLE

AktuellSource: Space-Track

Epoche: Sep 14, 2026, 15:49 UTC

1 31574U 07020D   26257.65937617 -.00000086  00000-0 -28527-4 0  9999
2 31574  51.9911 222.0455 0001322 105.9887  64.8249 11.91660083885643

Verfolge GLOBALSTAR M072 in Echtzeit mit AllMySat

Download on the App Store